Погода в Подгорном

Россия / Пензенская область     53°11′37″N   42°47′33″E
темп.,
°C
ветер,
м/с
пор.,
м/с
влажн.,
%
обл.,
%
осадки,
мм/ч
давл.,
гПа
погр.,
м
13 мая, чт
чт1300:00+9юв22956 0.0 102145
03:00+8в22941 0.0 102123
06:00+10всв2495100 0.0 1020125
09:00+16в358295 0.0 1018560
12:00+16вюв3689100 0.1 1017227
15:00+16ю3487100 1.1 1016268
18:00+18ююв36820 0.0 1016401
21:00+14ююв33900 0.0 101737
14 мая, пт
пт1400:00+13ю2287100 0.0 101814
03:00+13юв2285100 0.0 101921
06:00+14юв2488100 0.0 101988
09:00+20юв457255 0.0 1019494
12:00+23юв455879 0.0 10181145
15:00+24юв5657100 0.0 10171214
18:00+22юв3775100 0.0 1015204
21:00+19юв513875 0.6 1015248
15 мая, сб
сб1500:00+17юв41087100 0.0 1014168
03:00+16ююв51480100 0.0 1014293
06:00+15ююв51473100 0.8 1014303
09:00+19ююв7156483 0.8 1014621
12:00+23ю81452100 0.0 10151007
15:00+24ю712545 0.0 10141128
18:00+22ю5106484 0.0 1013372
21:00+17ююз36792 0.0 101482
16 мая, вс
вс1600:00+16юз22915 0.0 101430
03:00+15з229054 0.0 101512
06:00+16зюз1182100 0.0 101655
09:00+20юз226396 0.0 1016538
12:00+23зюз225656 0.0 10161118
15:00+24з235483 0.0 10151475
18:00+21с3472100 0.0 1014104
21:00+18ссв337528 0.1 101528
17 мая, пн
пн1700:00+15ссв348518 0.0 101570
03:00+14св358965 0.0 101688
06:00+16всв36885 0.0 1015157
09:00+22вюв45645 0.0 1016439
12:00+26ююв464533 0.0 1015941
15:00+27ююв57445 0.0 10151347
18:00+24юв366195 0.0 1015137
21:00+19юв4867100 0.0 1015105